• In Österreich
  • Länderverzeichnis
  • Für 7 Tage
  • Wassertemperatur
  • Satellitenkarten
  • Wetterkarte
  • News
  • Widgets
  • user-avatar
    Anmelden

    Stündliche Wetter Satif

    Heute, 18 Juli, Mittwoch

    Zeit Temperatur Niederschläge Wind Luftdruck Luftfeuchtigkeit
    00:00 +27°C° 0 mm 2 m/S 675 mmHg 41%
    01:00 +27°C° 0 mm 2 m/S 674 mmHg 40%
    02:00 +26°C° 0 mm 2 m/S 674 mmHg 40%
    03:00 +26°C° 0 mm 2 m/S 674 mmHg 39%
    04:00 +27°C° 0 mm 2 m/S 674 mmHg 38%
    05:00 +27°C° 0 mm 2 m/S 674 mmHg 37%
    06:00 +28°C° 0 mm 2 m/S 675 mmHg 36%
    07:00 +30°C° 0 mm 3 m/S 675 mmHg 32%
    08:00 +32°C° 0 mm 4 m/S 675 mmHg 28%
    09:00 +34°C° 0 mm 4 m/S 676 mmHg 24%
    10:00 +36°C° 0 mm 5 m/S 676 mmHg 22%
    11:00 +37°C° 0 mm 5 m/S 676 mmHg 19%
    12:00 +39°C° 0 mm 6 m/S 676 mmHg 17%
    13:00 +40°C° 0 mm 6 m/S 676 mmHg 17%
    14:00 +40°C° 0 mm 6 m/S 675 mmHg 16%
    15:00 +40°C° 0 mm 6 m/S 675 mmHg 15%
    16:00 +40°C° 0 mm 5 m/S 675 mmHg 17%
    17:00 +39°C° 0 mm 5 m/S 675 mmHg 18%
    18:00 +37°C° 0 mm 4 m/S 675 mmHg 20%
    19:00 +35°C° 0 mm 3 m/S 675 mmHg 23%
    20:00 +34°C° 0 mm 2 m/S 675 mmHg 27%
    21:00 +31°C° 0 mm 1 m/S 675 mmHg 31%
    22:00 +31°C° 0 mm 1 m/S 675 mmHg 33%
    23:00 +30°C° 0 mm 1 m/S 674 mmHg 35%

    Morgen, 19 Juli, Donnerstag

    Zeit Temperatur Niederschläge Wind Luftdruck Luftfeuchtigkeit
    00:00 +29°C° 0 mm 1 m/S 674 mmHg 37%
    01:00 +28°C° 0 mm 1 m/S 674 mmHg 39%
    02:00 +26°C° 0 mm 0 m/S 674 mmHg 40%
    03:00 +26°C° 0 mm 0 m/S 674 mmHg 42%
    04:00 +28°C° 0 mm 1 m/S 674 mmHg 41%
    05:00 +28°C° 0 mm 1 m/S 674 mmHg 40%
    06:00 +29°C° 0 mm 1 m/S 675 mmHg 39%
    07:00 +30°C° 0 mm 1 m/S 675 mmHg 35%
    08:00 +31°C° 0 mm 2 m/S 676 mmHg 32%
    09:00 +34°C° 0 mm 2 m/S 676 mmHg 28%
    10:00 +35°C° 0 mm 2 m/S 676 mmHg 25%
    11:00 +36°C° 0 mm 3 m/S 677 mmHg 21%
    12:00 +38°C° 0 mm 3 m/S 677 mmHg 17%
    13:00 +38°C° 0 mm 3 m/S 677 mmHg 18%
    14:00 +38°C° 0 mm 4 m/S 676 mmHg 19%
    15:00 +38°C° 0 mm 4 m/S 676 mmHg 20%
    16:00 +37°C° 0 mm 4 m/S 676 mmHg 20%
    17:00 +36°C° 0 mm 4 m/S 676 mmHg 20%
    18:00 +35°C° 0 mm 4 m/S 675 mmHg 20%
    19:00 +34°C° 0 mm 3 m/S 676 mmHg 21%
    20:00 +34°C° 0 mm 2 m/S 676 mmHg 22%
    21:00 +32°C° 0 mm 1 m/S 676 mmHg 23%
    22:00 +31°C° 0 mm 1 m/S 676 mmHg 23%
    23:00 +31°C° 0 mm 1 m/S 676 mmHg 23%

    übermorgen, 20 Juli, Freitag

    Zeit Temperatur Niederschläge Wind Luftdruck Luftfeuchtigkeit
    00:00 +31°C° 0 mm 1 m/S 675 mmHg 23%
    01:00 +31°C° 0 mm 1 m/S 675 mmHg 23%
    02:00 +30°C° 0 mm 1 m/S 674 mmHg 23%
    03:00 +30°C° 0 mm 1 m/S 674 mmHg 23%
    04:00 +30°C° 0 mm 1 m/S 674 mmHg 23%
    05:00 +31°C° 0 mm 1 m/S 674 mmHg 23%
    06:00 +31°C° 0 mm 1 m/S 675 mmHg 23%
    07:00 +34°C° 0 mm 2 m/S 675 mmHg 21%
    08:00 +35°C° 0 mm 2 m/S 676 mmHg 19%
    09:00 +37°C° 0 mm 3 m/S 676 mmHg 17%
    10:00 +38°C° 0 mm 3 m/S 677 mmHg 17%
    11:00 +39°C° 0 mm 3 m/S 677 mmHg 16%
    12:00 +41°C° 0 mm 4 m/S 677 mmHg 15%
    13:00 +40°C° 0 mm 4 m/S 676 mmHg 15%
    14:00 +40°C° 0 mm 4 m/S 676 mmHg 16%
    15:00 +40°C° 0 mm 4 m/S 675 mmHg 17%
    16:00 +38°C° 0 mm 4 m/S 675 mmHg 18%
    17:00 +37°C° 0 mm 4 m/S 675 mmHg 19%
    18:00 +37°C° 0 mm 4 m/S 675 mmHg 21%
    19:00 +36°C° 0 mm 4 m/S 675 mmHg 23%
    20:00 +35°C° 0 mm 3 m/S 675 mmHg 24%
    21:00 +34°C° 0 mm 2 m/S 675 mmHg 26%
    22:00 +32°C° 0 mm 2 m/S 675 mmHg 27%
    23:00 +31°C° 0 mm 2 m/S 674 mmHg 28%

    21 Juli, Samstag

    Zeit Temperatur Niederschläge Wind Luftdruck Luftfeuchtigkeit
    00:00 +31°C° 0 mm 1 m/S 674 mmHg 29%
    01:00 +30°C° 0 mm 2 m/S 673 mmHg 29%
    02:00 +30°C° 0 mm 2 m/S 673 mmHg 29%
    03:00 +29°C° 0 mm 2 m/S 673 mmHg 29%
    04:00 +30°C° 0 mm 3 m/S 673 mmHg 28%
    05:00 +30°C° 0 mm 3 m/S 673 mmHg 28%
    06:00 +30°C° 0 mm 4 m/S 674 mmHg 27%
    07:00 +33°C° 0 mm 5 m/S 674 mmHg 24%
    08:00 +35°C° 0 mm 7 m/S 675 mmHg 20%
    09:00 +38°C° 0 mm 9 m/S 676 mmHg 17%
    10:00 +39°C° 0 mm 9 m/S 676 mmHg 16%
    11:00 +39°C° 0 mm 9 m/S 676 mmHg 15%
    12:00 +40°C° 0 mm 9 m/S 676 mmHg 14%
    13:00 +40°C° 0 mm 9 m/S 676 mmHg 14%
    14:00 +40°C° 0 mm 8 m/S 675 mmHg 15%
    15:00 +40°C° 0 mm 8 m/S 675 mmHg 15%
    16:00 +39°C° 0 mm 7 m/S 675 mmHg 19%
    17:00 +38°C° 0 mm 6 m/S 675 mmHg 22%
    18:00 +35°C° 0 mm 5 m/S 674 mmHg 26%
    19:00 +34°C° 0 mm 4 m/S 674 mmHg 31%
    20:00 +32°C° 0 mm 4 m/S 675 mmHg 36%
    21:00 +29°C° 0 mm 3 m/S 675 mmHg 41%
    22:00 +28°C° 0 mm 3 m/S 674 mmHg 44%
    23:00 +27°C° 0 mm 2 m/S 674 mmHg 47%

    22 Juli, Sonntag

    Zeit Temperatur Niederschläge Wind Luftdruck Luftfeuchtigkeit
    00:00 +26°C° 0 mm 2 m/S 674 mmHg 51%
    01:00 +26°C° 0 mm 2 m/S 674 mmHg 52%
    02:00 +26°C° 0 mm 2 m/S 673 mmHg 54%
    03:00 +25°C° 0 mm 2 m/S 673 mmHg 55%
    04:00 +25°C° 0 mm 2 m/S 673 mmHg 55%
    05:00 +25°C° 0 mm 2 m/S 673 mmHg 56%
    06:00 +25°C° 0 mm 2 m/S 673 mmHg 57%
    07:00 +26°C° 0 mm 2 m/S 674 mmHg 52%
    08:00 +27°C° 0 mm 3 m/S 674 mmHg 46%
    09:00 +28°C° 0 mm 3 m/S 674 mmHg 41%
    10:00 +30°C° 0 mm 3 m/S 675 mmHg 38%
    11:00 +31°C° 0 mm 3 m/S 675 mmHg 34%
    12:00 +33°C° 0 mm 3 m/S 675 mmHg 31%
    13:00 +33°C° 0 mm 3 m/S 675 mmHg 32%
    14:00 +33°C° 0 mm 4 m/S 675 mmHg 33%
    15:00 +34°C° 0 mm 4 m/S 674 mmHg 33%
    16:00 +32°C° 0 mm 4 m/S 674 mmHg 37%
    17:00 +30°C° 0 mm 4 m/S 674 mmHg 41%
    18:00 +29°C° 0 mm 4 m/S 674 mmHg 44%
    19:00 +28°C° 0 mm 4 m/S 674 mmHg 49%
    20:00 +26°C° 0 mm 3 m/S 674 mmHg 53%
    21:00 +25°C° 0 mm 3 m/S 674 mmHg 57%
    22:00 +25°C° 0 mm 2 m/S 674 mmHg 59%
    23:00 +24°C° 0 mm 2 m/S 674 mmHg 60%

    23 Juli, Montag

    Zeit Temperatur Niederschläge Wind Luftdruck Luftfeuchtigkeit
    00:00 +23°C° 0 mm 2 m/S 673 mmHg 61%
    01:00 +23°C° 0 mm 2 m/S 673 mmHg 61%
    02:00 +23°C° 0 mm 1 m/S 673 mmHg 61%
    03:00 +22°C° 0 mm 1 m/S 673 mmHg 61%
    04:00 +23°C° 0 mm 1 m/S 673 mmHg 58%
    05:00 +23°C° 0 mm 1 m/S 673 mmHg 55%
    06:00 +23°C° 0 mm 1 m/S 673 mmHg 51%
    07:00 +25°C° 0 mm 1 m/S 674 mmHg 43%
    08:00 +27°C° 0 mm 1 m/S 674 mmHg 35%
    09:00 +29°C° 0 mm 1 m/S 674 mmHg 26%
    10:00 +30°C° 0 mm 2 m/S 674 mmHg 24%
    11:00 +33°C° 0 mm 3 m/S 674 mmHg 21%
    12:00 +34°C° 0 mm 3 m/S 674 mmHg 18%
    13:00 +34°C° 0 mm 4 m/S 674 mmHg 19%
    14:00 +35°C° 0 mm 4 m/S 674 mmHg 19%
    15:00 +35°C° 0 mm 5 m/S 674 mmHg 19%
    16:00 +34°C° 0 mm 4 m/S 673 mmHg 21%
    17:00 +33°C° 0 mm 4 m/S 673 mmHg 24%
    18:00 +32°C° 0 mm 4 m/S 673 mmHg 26%
    19:00 +30°C° 0 mm 3 m/S 673 mmHg 29%
    20:00 +29°C° 0 mm 3 m/S 673 mmHg 32%
    21:00 +27°C° 0 mm 2 m/S 673 mmHg 34%
    22:00 +27°C° 0 mm 2 m/S 672 mmHg 35%
    23:00 +26°C° 0 mm 1 m/S 672 mmHg 35%
    Mehr zeigen